Location: Bailleul
(50.3375°N, 2.8513°E)
Time: 13:15:52
(UTC+00:00)

Cosmos 2016 Rocket - Pass Details

Date: 28 October 2021
Orbit: 946 x 1001 km, 83.0° (Epoch: 30 November)

Event Time Altitude Azimuth Distance (km) Brightness Sun altitude
Rises 05:31:45 0° 353° (N) 3,630 6.8 -10.2°
Reaches altitude 10° 05:34:22 10° 360° (N) 2,681 6.2 -9.8°
Maximum altitude 05:40:14 46° 73° (ENE) 1,253 5.1 -8.9°
Drops below altitude 10° 05:46:06 10° 146° (SE) 2,679 7.0 -8.0°
Sets 05:48:42 0° 152° (SSE) 3,627 7.6 -7.6°
